[[{"header":{"parameterUnit":"m.s-1","parameterCategory":1,"la1":30.2991,"la2":30.254,"lo1":-89.0895,"lo2":-89.0444,"dy":0.0017,"dx":0.0017,"nx":28,"ny":28,"refTime":"2025-09-18T03:00:00:Z","depth":0,"parameterNumber":2,"parameterNumberName":"U-component_of_WINDS"},"data":[0,0,0,0,0,0,0,0,0,0,0,0,0,0,0,0,0,0,0,0,0,0,0,0,0,0,0,0,0,0,0,0,0,0,0,0,0,0,0,0,0,0,0,0,0,0,0,0,0,0,0,0,0,0,0,0,0,0,-1.7015,-1.7014,0,-1.6916,-1.6915,-1.6913,-1.6846,-1.6845,-1.6845,-1.6844,-1.674,-1.6738,-1.6736,0,0,0,0,0,0,0,0,0,0,0,0,0,-1.7147,-1.7145,-1.7015,-1.7014,-1.7013,-1.6916,-1.6915,-1.6913,-1.6846,-1.6845,-1.6845,-1.6844,-1.6741,-1.6738,-1.6735,0,0,0,0,0,0,0,0,0,0,0,0,0,-1.7073,-1.7144,-1.7016,-1.6968,-1.6962,-1.6916,-1.6914,-1.6913,-1.6846,-1.6845,-1.6844,-1.6844,-1.6742,-1.6739,-1.6735,-1.6728,0,0,-1.6724,-1.6723,0,0,0,0,0,0,0,0,-1.7077,-1.7068,-1.6976,-1.6971,-1.6965,-1.6892,-1.6923,-1.6851,-1.6846,-1.689,-1.6844,-1.6843,-1.6791,-1.6784,-1.6767,-1.6723,-1.6719,-1.6724,-1.6722,-1.6721,-1.672,0,0,0,0,0,0,0,-1.7082,-1.7072,-1.6976,-1.6975,-1.6968,-1.6951,-1.694,-1.6909,-1.6846,-1.6886,-1.6881,-1.687,-1.6788,-1.677,-1.6764,-1.6717,-1.6724,-1.6721,-1.6719,-1.6718,-1.6665,-1.6666,0,0,0,0,0,0,-1.7095,-1.7077,-1.6979,-1.6973,-1.702,-1.6949,-1.6936,-1.6916,-1.6846,-1.6835,-1.6871,-1.6867,-1.6776,-1.6768,-1.676,-1.6748,-1.6721,-1.6717,-1.6715,-1.6664,-1.6665,-1.6666,0,0,0,0,0,0,-1.7098,-1.7087,-1.6983,-1.7023,-1.7009,-1.6948,-1.6926,-1.6915,-1.6897,-1.6835,-1.6823,-1.6864,-1.6775,-1.6765,-1.6737,-1.6744,-1.6716,-1.6713,-1.6664,-1.6665,-1.6666,-1.6725,0,0,0,0,0,0,-1.7102,-1.7089,-1.7085,-1.7024,-1.7007,-1.6962,-1.6926,-1.6913,-1.6891,-1.6886,-1.6825,-1.6814,-1.6774,-1.6743,-1.6734,-1.6738,-1.671,-1.6663,-1.6664,-1.6665,-1.6722,-1.6727,-1.6732,0,0,0,0,0,-1.7107,-1.7105,-1.7085,-1.7074,-1.7002,-1.6963,-1.6953,-1.6907,-1.6892,-1.6888,-1.6849,-1.6816,-1.6744,-1.674,-1.673,-1.6733,-1.6662,-1.6664,-1.6665,-1.6719,-1.6726,-1.6732,0,0,0,0,0,0,-1.7167,-1.7096,-1.7073,-1.7051,-1.7014,-1.6952,-1.6945,-1.6916,-1.6881,-1.6878,-1.6822,-1.6809,-1.6787,-1.6757,-1.6754,-1.6724,-1.6699,-1.6699,-1.6744,-1.675,-1.6756,-1.6763,-1.6707,0,0,0,0,0,-1.7179,-1.7153,-1.7092,-1.7078,-1.7061,-1.7007,-1.6988,-1.6956,-1.6915,-1.6898,-1.6857,-1.6817,-1.6786,-1.6766,-1.6734,-1.6717,-1.6704,-1.6715,-1.672,-1.6725,-1.6725,-1.6716,-1.672,-1.6671,-1.6671,-1.6671,0,0,-1.72,-1.7158,-1.7145,-1.709,-1.7057,-1.7032,-1.6994,-1.6969,-1.695,-1.6894,-1.6866,-1.6835,-1.6787,-1.6766,-1.6754,-1.674,-1.6736,-1.6727,-1.6731,-1.6728,-1.6718,-1.6722,-1.6727,-1.6672,-1.6672,-1.6672,0,0,-1.7228,-1.7193,-1.7179,-1.7147,-1.7099,-1.7063,-1.706,-1.7002,-1.6979,-1.6951,-1.6909,-1.6886,-1.6833,-1.6801,-1.6778,-1.6797,-1.6766,-1.6787,-1.6815,-1.6807,-1.6811,-1.6814,-1.6822,-1.6825,-1.6788,-1.6788,-1.6788,0,-1.7261,-1.7222,-1.7175,-1.7153,-1.713,-1.708,-1.7066,-1.7037,-1.698,-1.6966,-1.6951,-1.6885,-1.6849,-1.682,-1.6825,-1.6808,-1.6803,-1.6794,-1.6814,-1.6817,-1.6819,-1.6826,-1.6829,-1.6791,-1.6791,-1.679,-1.679,0,-1.7266,-1.7241,-1.7235,-1.7183,-1.7159,-1.7141,-1.7091,-1.7073,-1.7044,-1.701,-1.6982,-1.6938,-1.6897,-1.6887,-1.6858,-1.6855,-1.6848,-1.6825,-1.6799,-1.6828,-1.6833,-1.6835,-1.6795,-1.6794,-1.6793,-1.6793,0,0,-1.7328,-1.7251,-1.725,-1.7227,-1.717,-1.7149,-1.713,-1.709,-1.7076,-1.7039,-1.7022,-1.6979,-1.6958,-1.6932,-1.6899,-1.6891,-1.6911,-1.6869,-1.6867,-1.6879,-1.6906,-1.6925,-1.6929,-1.689,-1.689,-1.6891,-1.6911,0,-1.7347,-1.731,-1.7267,-1.7245,-1.7221,-1.7174,-1.7157,-1.7121,-1.7089,-1.7064,-1.7029,-1.7,-1.6973,-1.6958,-1.6948,-1.691,-1.6915,-1.6908,-1.6874,-1.6873,-1.6888,-1.6931,-1.695,-1.6971,-1.6912,-1.6913,-1.6913,0,-1.7365,-1.7332,-1.7307,-1.7255,-1.7243,-1.7229,-1.7191,-1.7167,-1.7126,-1.7103,-1.7076,-1.7041,-1.7018,-1.6996,-1.6965,-1.6961,-1.6944,-1.6924,-1.6924,-1.6919,-1.6895,-1.6929,-1.6977,-1.6981,-1.6916,-1.6915,-1.6915,0,-1.7414,-1.7363,-1.7342,-1.7323,-1.7261,-1.7253,-1.7227,-1.7184,-1.7164,-1.7131,-1.7117,-1.7081,-1.7062,-1.7035,-1.6991,-1.6979,-1.6965,-1.6939,-1.6947,-1.6948,-1.6946,-1.6947,-1.6993,-1.6934,-1.6934,-1.6934,-1.6934,0,-1.744,-1.7427,-1.7364,-1.7351,-1.7335,-1.7287,-1.7273,-1.7242,-1.7206,-1.7187,-1.7143,-1.7126,-1.707,-1.7046,-1.7012,-1.6993,-1.6984,-1.6965,-1.6956,-1.697,-1.6972,-1.6958,-1.6956,-1.6935,-1.6935,-1.6935,-1.6935,0,-1.7492,-1.7449,-1.7423,-1.7368,-1.7354,-1.7345,-1.7297,-1.7283,-1.725,-1.7226,-1.7218,-1.7165,-1.7135,-1.709,-1.7046,-1.7023,-1.7009,-1.6994,-1.7024,-1.7019,-1.703,-1.703,-1.7069,-1.7073,-1.7011,-1.7012,-1.7013,0,-1.7512,-1.7502,-1.7446,-1.743,-1.7406,-1.7381,-1.7361,-1.7313,-1.7294,-1.7248,-1.724,-1.7207,-1.7178,-1.7133,-1.7091,-1.7057,-1.7042,-1.7058,-1.7036,-1.7051,-1.7044,-1.7045,-1.7045,-1.7063,-1.7064,-1.7065,-1.7066,0,-1.7553,-1.7533,-1.7506,-1.7472,-1.7449,-1.742,-1.7388,-1.7378,-1.7323,-1.7304,-1.7274,-1.7252,-1.7208,-1.7177,-1.7138,-1.7111,-1.708,-1.7073,-1.7073,-1.7087,-1.7105,-1.7097,-1.7039,-1.7072,-1.7071,-1.7071,-1.7071,-1.707,-1.759,-1.7579,-1.7539,-1.7511,-1.7482,-1.7454,-1.7439,-1.7405,-1.7379,-1.7341,-1.7314,-1.7286,-1.7246,-1.7191,-1.7166,-1.7144,-1.713,-1.713,-1.713,-1.7131,-1.7137,-1.7108,-1.7136,-1.7136,-1.7136,-1.7136,-1.7136,0,-1.763,-1.7602,-1.7577,-1.7535,-1.7513,-1.7487,-1.7451,-1.7434,-1.741,-1.7376,-1.735,-1.7316,-1.7286,-1.7242,-1.7209,-1.7199,-1.7184,-1.7192,-1.7193,-1.7187,-1.715,-1.7154,-1.7205,-1.7205,-1.7205,-1.7205,-1.7205,-1.7205,-1.7648,-1.7629,-1.7604,-1.7571,-1.7543,-1.7516,-1.7498,-1.7472,-1.7445,-1.741,-1.7385,-1.7357,-1.732,-1.7284,-1.7255,-1.7243,-1.7233,-1.7246,-1.723,-1.7196,-1.719,-1.7184,-1.7187,-1.7244,-1.7244,-1.7269,-1.7269,-1.7269]},{"header":{"parameterUnit":"m.s-1","parameterCategory":1,"la1":30.2991,"la2":30.254,"lo1":-89.0895,"lo2":-89.0444,"dy":0.0017,"dx":0.0017,"nx":28,"ny":28,"refTime":"2025-09-18T03:00:00:Z","depth":0,"parameterNumber":3,"parameterNumberName":"V-component_of_WINDS"},"data":[0,0,0,0,0,0,0,0,0,0,0,0,0,0,0,0,0,0,0,0,0,0,0,0,0,0,0,0,0,0,0,0,0,0,0,0,0,0,0,0,0,0,0,0,0,0,0,0,0,0,0,0,0,0,0,0,0,0,1.0732,1.0732,0,1.0727,1.0727,1.0727,1.0747,1.0747,1.0748,1.0749,1.0742,1.0742,1.0741,0,0,0,0,0,0,0,0,0,0,0,0,0,1.0757,1.0756,1.0732,1.0732,1.0732,1.0728,1.0727,1.0727,1.0747,1.0747,1.0748,1.0749,1.0743,1.0742,1.0741,0,0,0,0,0,0,0,0,0,0,0,0,0,1.0748,1.0756,1.0732,1.0741,1.0742,1.0728,1.0727,1.0727,1.0747,1.0747,1.0748,1.0749,1.0743,1.0742,1.0741,1.0717,0,0,1.0738,1.0737,0,0,0,0,0,0,0,0,1.0749,1.0748,1.074,1.0741,1.0742,1.0739,1.0734,1.0724,1.0746,1.0745,1.0749,1.075,1.074,1.074,1.0737,1.0717,1.0716,1.0738,1.0737,1.0736,1.0736,0,0,0,0,0,0,0,1.0749,1.0748,1.073,1.074,1.0741,1.0745,1.0745,1.0732,1.0738,1.0745,1.0746,1.0746,1.0741,1.0738,1.0737,1.0716,1.0738,1.0737,1.0736,1.0736,1.0674,1.0673,0,0,0,0,0,0,1.0749,1.0748,1.0731,1.073,1.0747,1.0744,1.0744,1.0739,1.0738,1.0739,1.0745,1.0747,1.0739,1.0738,1.0737,1.0707,1.0736,1.0735,1.0735,1.0675,1.0674,1.0673,0,0,0,0,0,0,1.0749,1.0747,1.0731,1.074,1.0738,1.0743,1.0737,1.0738,1.0735,1.0738,1.0739,1.0741,1.074,1.0738,1.0721,1.0707,1.0735,1.0734,1.0677,1.0675,1.0674,1.0648,0,0,0,0,0,0,1.075,1.0747,1.0739,1.0739,1.0737,1.0716,1.0736,1.0737,1.0733,1.0735,1.0734,1.0735,1.074,1.0723,1.072,1.0706,1.0733,1.0678,1.0676,1.0674,1.065,1.0646,1.0642,0,0,0,0,0,1.0751,1.0732,1.0738,1.0736,1.0727,1.0715,1.0714,1.0721,1.0732,1.0723,1.0725,1.0735,1.0709,1.0721,1.0718,1.0703,1.0679,1.0676,1.0674,1.0652,1.0646,1.0642,0,0,0,0,0,0,1.0729,1.0732,1.0739,1.072,1.0717,1.0718,1.0707,1.0715,1.0709,1.0711,1.072,1.072,1.0701,1.0701,1.0714,1.0679,1.0696,1.0693,1.0679,1.0675,1.0671,1.067,1.0732,0,0,0,0,0,1.0722,1.0713,1.0716,1.0699,1.0697,1.0702,1.0698,1.0703,1.0701,1.0699,1.07,1.0697,1.0688,1.0682,1.0674,1.0651,1.0649,1.0639,1.0635,1.0632,1.0628,1.0614,1.0609,1.0666,1.0666,1.0666,0,0,1.0708,1.0708,1.0702,1.0694,1.0693,1.0682,1.0701,1.069,1.0681,1.0698,1.0681,1.0682,1.0678,1.0658,1.0649,1.0657,1.0613,1.0629,1.0626,1.0625,1.0611,1.0606,1.0601,1.0664,1.0664,1.0665,0,0,1.0675,1.0675,1.0659,1.0658,1.0655,1.0659,1.0655,1.0655,1.0656,1.064,1.0651,1.0642,1.0627,1.0623,1.062,1.0585,1.0593,1.0582,1.056,1.0546,1.0542,1.0538,1.0523,1.0518,1.0579,1.0579,1.0579,0,1.0656,1.0641,1.065,1.0637,1.0633,1.0648,1.0631,1.0629,1.0624,1.062,1.063,1.061,1.061,1.0587,1.0579,1.0576,1.0571,1.0581,1.0542,1.0538,1.0534,1.052,1.0515,1.0578,1.0578,1.0578,1.0578,0,1.0617,1.0607,1.0595,1.0589,1.0584,1.0569,1.0575,1.0569,1.0575,1.0577,1.056,1.0559,1.055,1.0546,1.0553,1.0524,1.0529,1.054,1.0557,1.0527,1.0514,1.0509,1.0576,1.0576,1.0577,1.0577,0,0,1.0569,1.0569,1.0564,1.0561,1.0559,1.0551,1.0537,1.0528,1.0521,1.0518,1.0505,1.0491,1.0501,1.0497,1.0503,1.0491,1.0461,1.0503,1.0503,1.0493,1.0427,1.0416,1.041,1.0467,1.0466,1.0466,1.0426,0,1.0535,1.051,1.0518,1.0493,1.0482,1.0496,1.0483,1.048,1.0482,1.0473,1.0475,1.0464,1.048,1.0477,1.0466,1.0467,1.0447,1.047,1.0453,1.0452,1.045,1.0403,1.0393,1.0355,1.0421,1.042,1.042,0,1.0491,1.0485,1.0459,1.0458,1.0453,1.0442,1.0434,1.0425,1.0422,1.0424,1.0419,1.0427,1.0412,1.0431,1.0409,1.0424,1.0418,1.0417,1.0416,1.0412,1.0432,1.0396,1.0344,1.0337,1.0412,1.0413,1.0413,0,1.0455,1.0441,1.0423,1.042,1.0419,1.041,1.0409,1.0407,1.0401,1.0394,1.039,1.0382,1.0377,1.037,1.0375,1.0388,1.0351,1.0371,1.0351,1.035,1.034,1.034,1.0283,1.0341,1.0341,1.0341,1.0341,0,1.0415,1.0397,1.0406,1.0395,1.0375,1.0385,1.0365,1.0365,1.0363,1.0351,1.0364,1.0352,1.0361,1.035,1.0355,1.0334,1.0333,1.0332,1.0333,1.033,1.0329,1.0323,1.0325,1.034,1.034,1.034,1.034,0,1.037,1.0376,1.0356,1.0357,1.0357,1.0342,1.0342,1.0331,1.0334,1.0319,1.0315,1.032,1.0307,1.0313,1.03,1.0303,1.0275,1.0281,1.0276,1.0277,1.0255,1.0256,1.019,1.0181,1.0248,1.0247,1.0246,0,1.0342,1.0329,1.0328,1.0321,1.0319,1.0308,1.0302,1.031,1.0303,1.0298,1.0287,1.0276,1.0267,1.0246,1.0247,1.0237,1.024,1.0218,1.0239,1.0235,1.0237,1.0236,1.0233,1.0213,1.0212,1.0212,1.0211,0,1.0291,1.0294,1.0285,1.0276,1.0269,1.0262,1.0257,1.0251,1.0259,1.025,1.0238,1.0231,1.0217,1.0205,1.0196,1.0194,1.0203,1.0205,1.02,1.0194,1.019,1.0189,1.0262,1.0206,1.0207,1.0207,1.0207,1.0208,1.0252,1.024,1.0237,1.0226,1.0223,1.0217,1.0206,1.0208,1.0198,1.0187,1.0193,1.0178,1.0174,1.0162,1.0159,1.0146,1.0155,1.0147,1.0145,1.0142,1.0138,1.0195,1.0145,1.0145,1.0145,1.0146,1.0146,0,1.0199,1.0198,1.0188,1.0179,1.017,1.0181,1.0176,1.0167,1.0153,1.0149,1.014,1.0124,1.0113,1.0113,1.0102,1.0091,1.0095,1.0088,1.0087,1.0086,1.0132,1.0137,1.0085,1.0085,1.0085,1.0085,1.0085,1.0085,1.017,1.0149,1.0152,1.013,1.0129,1.0114,1.011,1.0104,1.0101,1.0083,1.0073,1.0074,1.0071,1.0059,1.0048,1.0049,1.0042,1.0033,1.0034,1.0077,1.0083,1.0089,1.0093,1.0032,1.0032,0.9989,0.9988,0.9988]}]]